weather.gov     
National Weather Service

Terminal Aerodrome Forecast
NWS Homepage
This page is being discontinued on March 12, 2014.
The same data is available at this site. Please update your bookmarks.
Thank you, and we apologize for the inconvenience.
Please send an email to SR-SRH.Webmaster@noaa.gov with any concerns.


Current Version
Previous Version:    01  02  03  04  05  06  07  08  09  10  11  12  13  14  15  16  17  18  19  20  21  22  23  24  25  26  27  28  29  30  
   31  32  33  34  35  
[Printable]
172
FTUS45 KPIH 241100
TAFSUN
TAF
KSUN 241120Z 2412/2512 32010KT P6SM VCSH OVC070
     FM241600 32007KT P6SM -SHRA SCT025 OVC040
     FM241900 15008KT P6SM -SHRA OVC030
     FM250300 33007KT P6SM VCSH OVC050
     FM250700 VRB05KT 4SM -RA OVC030
      AMD LTD TO CLD VIS AND WIND TIL 241300=


U.S. Dept. of Commerce
NOAA National Weather Service
1325 East West Highway
Silver Spring, MD 20910
E-mail: w-nws.webmaster@noaa.gov
Page last modified: May 16, 2007
NATIONAL WEATHER SERVICE: for Safety, for Work, for Fun - FOR LIFE